Cody, WY

5:37 PM MDT on July 25, 2016 (GMT -0600)
Yellowstone Regional

Weather History for KCOD - November, 2013

Change the Weather History Date:

Friday, November 15, 2013

  Actual Average Record
Temperature  
Mean Temperature 37 °F -  
Max Temperature 44 °F 45 °F 73 °F (1934)
Min Temperature 30 °F 23 °F -22 °F (1955)
Degree Days  
Heating Degree Days 28    
Moisture  
Dew Point 17 °F    
Average Humidity 41    
Maximum Humidity 64    
Minimum Humidity 29    
Precipitation  
Precipitation 0.04 in - - ()
Sea Level Pressure  
Sea Level Pressure 29.52 in    
Wind  
Wind Speed 12 mph (WSW)    
Max Wind Speed 29 mph    
Max Gust Speed 41 mph    
Visibility 10 miles    
Events      
Averages and records for this station are not official NWS values.
T = Trace of Precipitation, MM = Missing Value Source: NWS Daily Summary

Daily Weather History Graph

Daily Weather History Graph

Search for Another Location

Airport or City:

Trip Planner

Search our weather history database for the weather conditions in past years. The results will help you decide how hot, cold, wet, or windy it might be!

Date:

Astronomy

Nov. 15, 2013 Rise Set
Actual Time 7:12 AM MST 4:48 PM MST
Civil Twilight 6:41 AM MST 5:19 PM MST
Nautical Twilight 6:06 AM MST 5:54 PM MST
Astronomical Twilight 5:31 AM MST 6:29 PM MST
Moon 3:50 PM MST (11/15) 5:08 AM MST (11/15)
Length of Visible Light 10h 38m
Length of Day
9h 35m
Waxing Gibbous, 97% of the Moon is Illuminated
Nov 15
Waxing Gibbous
Nov 17
Full
Nov 25
Last Quarter
Dec 2
New
Dec 9
First Quarter

Hourly Weather History & Observations

Time (MST) Temp. Windchill Dew Point Humidity Pressure Visibility Wind Dir Wind Speed Gust Speed Precip Events Conditions
12:15 AM 35.6 °F 29.2 °F 19.4 °F 52% 29.69 in 10.0 mi WSW 8.1 mph - N/A   Clear
12:35 AM 35.6 °F 29.9 °F 19.4 °F 52% 29.69 in 10.0 mi WNW 6.9 mph - N/A   Scattered Clouds
12:55 AM 37.4 °F 32.8 °F 19.4 °F 48% 29.68 in 10.0 mi WNW 5.8 mph - N/A   Clear
1:15 AM 35.6 °F - 19.4 °F 52% 29.67 in 10.0 mi Calm Calm - N/A   Clear
1:35 AM 33.8 °F 25.3 °F 19.4 °F 56% 29.66 in 10.0 mi SSW 11.5 mph - N/A   Clear
2:15 AM 30.2 °F 25.4 °F 19.4 °F 64% 29.67 in 10.0 mi West 4.6 mph - N/A   Clear
2:35 AM 30.2 °F 26.7 °F 19.4 °F 64% 29.67 in 10.0 mi SSW 3.5 mph - N/A   Clear
2:55 AM 33.8 °F 30.8 °F 19.4 °F 56% 29.66 in 10.0 mi South 3.5 mph - N/A   Clear
3:15 AM 33.8 °F - 21.2 °F 60% 29.66 in 10.0 mi Calm Calm - N/A   Clear
3:35 AM 37.4 °F 32.1 °F 21.2 °F 52% 29.65 in 10.0 mi SW 6.9 mph - N/A   Clear
3:55 AM 32.0 °F 28.7 °F 19.4 °F 60% 29.65 in 10.0 mi NW 3.5 mph - N/A   Clear
4:15 AM 37.4 °F 32.8 °F 23.0 °F 56% 29.64 in 10.0 mi West 5.8 mph - N/A   Clear
4:35 AM 33.8 °F 28.6 °F 19.4 °F 56% 29.64 in 10.0 mi WSW 5.8 mph - N/A   Clear
4:55 AM 30.2 °F - 19.4 °F 64% 29.63 in 10.0 mi Calm Calm - N/A   Clear
5:15 AM 33.8 °F - 19.4 °F 56% 29.62 in 10.0 mi Calm Calm - N/A   Clear
5:35 AM 33.8 °F 29.6 °F 19.4 °F 56% 29.61 in 10.0 mi WNW 4.6 mph - N/A   Clear
5:55 AM 39.2 °F 33.0 °F 19.4 °F 45% 29.61 in 10.0 mi WSW 9.2 mph - N/A   Clear
6:15 AM 37.4 °F 30.8 °F 19.4 °F 48% 29.61 in 10.0 mi WSW 9.2 mph - N/A   Clear
6:35 AM 37.4 °F 31.4 °F 19.4 °F 48% 29.60 in 10.0 mi SW 8.1 mph - N/A   Clear
6:55 AM 37.4 °F 28.5 °F 19.4 °F 48% 29.59 in 10.0 mi SW 15.0 mph - N/A   Clear
7:15 AM 39.2 °F 32.0 °F 19.4 °F 45% 29.59 in 10.0 mi West 11.5 mph 19.6 mph N/A   Clear
7:35 AM 41.0 °F 32.5 °F 19.4 °F 42% 29.59 in 10.0 mi WSW 17.3 mph 25.3 mph N/A   Clear
7:55 AM 41.0 °F 35.2 °F 19.4 °F 42% 29.59 in 10.0 mi West 9.2 mph 18.4 mph N/A   Clear
8:15 AM 42.8 °F 34.3 °F 17.6 °F 36% 29.59 in 10.0 mi WSW 19.6 mph 27.6 mph N/A   Clear
8:35 AM 42.8 °F 32.9 °F 17.6 °F 36% 29.57 in 10.0 mi SSW 26.5 mph 34.5 mph N/A   Clear
8:55 AM 42.8 °F 33.5 °F 17.6 °F 36% 29.57 in 10.0 mi SW 23.0 mph 34.5 mph 0.01 in   Clear
9:15 AM 42.8 °F 36.6 °F 19.4 °F 39% 29.57 in 10.0 mi SW 11.5 mph 23.0 mph N/A   Clear
9:35 AM 42.8 °F 37.5 °F 19.4 °F 39% 29.57 in 10.0 mi SW 9.2 mph 19.6 mph N/A   Clear
9:55 AM 44.6 °F 38.1 °F 17.6 °F 34% 29.57 in 10.0 mi WSW 13.8 mph 18.4 mph N/A   Clear
10:15 AM 44.6 °F 37.4 °F 17.6 °F 34% 29.56 in 10.0 mi WSW 16.1 mph 23.0 mph N/A   Clear
10:35 AM 44.6 °F 37.2 °F 17.6 °F 34% 29.57 in 10.0 mi WSW 17.3 mph 27.6 mph N/A   Clear
10:55 AM 44.6 °F 36.9 °F 17.6 °F 34% 29.56 in 10.0 mi West 18.4 mph 24.2 mph N/A   Clear
11:15 AM 44.6 °F 35.7 °F 15.8 °F 31% 29.55 in 10.0 mi West 24.2 mph 33.4 mph N/A   Clear
11:35 AM 44.6 °F 37.2 °F 15.8 °F 31% 29.54 in 10.0 mi WSW 17.3 mph 36.8 mph N/A   Clear
11:55 AM 44.6 °F 36.4 °F 15.8 °F 31% 29.53 in 10.0 mi West 20.7 mph 34.5 mph N/A   Clear
12:15 PM 44.6 °F 36.6 °F 15.8 °F 31% 29.52 in 10.0 mi West 19.6 mph 36.8 mph N/A   Clear
12:35 PM 44.6 °F 35.5 °F 15.8 °F 31% 29.51 in 10.0 mi WSW 25.3 mph 35.7 mph N/A   Clear
12:55 PM 44.6 °F 36.1 °F 15.8 °F 31% 29.50 in 10.0 mi West 21.9 mph 39.1 mph N/A   Clear
1:15 PM 44.6 °F 37.4 °F 15.8 °F 31% 29.49 in 10.0 mi West 16.1 mph 28.8 mph 0.01 in   Clear
1:35 PM 44.6 °F 36.9 °F 15.8 °F 31% 29.48 in 10.0 mi West 18.4 mph 38.0 mph 0.01 in   Clear
1:55 PM 44.6 °F 35.5 °F 15.8 °F 31% 29.46 in 10.0 mi WSW 25.3 mph 39.1 mph 0.01 in   Clear
2:15 PM 44.6 °F 37.8 °F 15.8 °F 31% 29.45 in 10.0 mi West 15.0 mph 38.0 mph N/A   Clear
2:35 PM 42.8 °F 34.8 °F 15.8 °F 34% 29.44 in 10.0 mi WSW 17.3 mph 38.0 mph N/A   Clear
2:55 PM 42.8 °F 35.4 °F 15.8 °F 34% 29.43 in 10.0 mi WSW 15.0 mph 35.7 mph N/A   Clear
3:15 PM 42.8 °F 32.7 °F 14.0 °F 31% 29.43 in 10.0 mi WSW 27.6 mph 34.5 mph N/A   Clear
3:35 PM 42.8 °F 34.0 °F 12.2 °F 29% 29.42 in 10.0 mi West 20.7 mph 40.3 mph N/A   Clear
3:55 PM 42.8 °F 33.5 °F 14.0 °F 31% 29.43 in 10.0 mi West 23.0 mph 33.4 mph N/A   Clear
4:15 PM 41.0 °F 32.2 °F 14.0 °F 33% 29.43 in 10.0 mi WSW 18.4 mph 38.0 mph N/A   Clear
4:35 PM 39.2 °F 29.8 °F 12.2 °F 33% 29.44 in 10.0 mi West 18.4 mph 40.3 mph N/A   Clear
4:55 PM 39.2 °F 30.2 °F 14.0 °F 36% 29.43 in 10.0 mi West 17.3 mph 40.3 mph N/A   Clear
5:15 PM 39.2 °F 29.3 °F 12.2 °F 33% 29.43 in 10.0 mi West 20.7 mph 38.0 mph N/A   Clear
5:35 PM 39.2 °F 27.6 °F 12.2 °F 33% 29.43 in 10.0 mi West 28.8 mph 41.4 mph N/A   Clear
5:55 PM 37.4 °F 27.2 °F 14.0 °F 38% 29.42 in 10.0 mi WSW 19.6 mph 35.7 mph N/A   Clear
6:15 PM 37.4 °F 27.2 °F 12.2 °F 36% 29.43 in 10.0 mi WSW 19.6 mph 39.1 mph 0.02 in   Clear
6:35 PM 37.4 °F 26.4 °F 12.2 °F 36% 29.43 in 10.0 mi WSW 23.0 mph 34.5 mph 0.02 in   Clear
6:55 PM 37.4 °F 28.2 °F 12.2 °F 36% 29.44 in 10.0 mi West 16.1 mph 35.7 mph 0.02 in   Clear
7:15 PM 37.4 °F 26.1 °F 12.2 °F 36% 29.45 in 10.0 mi West 24.2 mph 36.8 mph N/A   Clear
7:35 PM 37.4 °F 27.8 °F 14.0 °F 38% 29.44 in 10.0 mi West 17.3 mph 34.5 mph N/A   Clear
7:55 PM 37.4 °F 26.9 °F 14.0 °F 38% 29.45 in 10.0 mi West 20.7 mph 32.2 mph N/A   Clear
8:15 PM 37.4 °F 25.4 °F 14.0 °F 38% 29.43 in 10.0 mi WSW 27.6 mph 41.4 mph N/A   Mostly Cloudy
8:35 PM 37.4 °F 27.2 °F 14.0 °F 38% 29.42 in 10.0 mi West 19.6 mph 36.8 mph N/A   Scattered Clouds
8:55 PM 37.4 °F 27.2 °F 15.8 °F 41% 29.41 in 10.0 mi West 19.6 mph 34.5 mph N/A   Mostly Cloudy
9:35 PM 37.4 °F 28.5 °F 15.8 °F 41% 29.41 in 10.0 mi WSW 15.0 mph 27.6 mph N/A   Overcast
9:55 PM 37.4 °F 28.2 °F 15.8 °F 41% 29.39 in 10.0 mi WSW 16.1 mph 32.2 mph N/A   Overcast
10:15 PM 37.4 °F 27.5 °F 14.0 °F 38% 29.38 in 10.0 mi WSW 18.4 mph 31.1 mph N/A   Mostly Cloudy
10:35 PM 37.4 °F 27.5 °F 14.0 °F 38% 29.38 in 10.0 mi WSW 18.4 mph 31.1 mph N/A   Mostly Cloudy
10:55 PM 37.4 °F 26.9 °F 14.0 °F 38% 29.38 in 10.0 mi WSW 20.7 mph 32.2 mph N/A   Mostly Cloudy
11:15 PM 37.4 °F 28.9 °F 14.0 °F 38% 29.38 in 10.0 mi WSW 13.8 mph 29.9 mph N/A   Overcast
11:35 PM 37.4 °F 27.5 °F 15.8 °F 41% 29.39 in 10.0 mi WSW 18.4 mph 27.6 mph N/A   Overcast
11:55 PM 37.4 °F 29.3 °F 15.8 °F 41% 29.39 in 10.0 mi WSW 12.7 mph 25.3 mph N/A   Overcast